You are listening to:
KSWF Tower - Newburgh, New York, United States

KSWF 261145Z 00000KT 10SM SCT030 SCT060 13/13 A2967

If stream doesn't start automatically press the play button
If stream stops then reload player then press play